星链-31279 (STARLINK-31279 )

导读

STARLINK-31279是美国SpaceX公司星链(Starlink)卫星互联网星座中的一颗卫星,于2024年2月29日发射入轨。星链项目计划在近地轨道部署数万颗卫星,旨在为全球尤其是偏远地区提供低延迟、高速宽带互联网服务。STARLINK-31279加入运营中的星链星座,进一步拓展了星链的全球覆盖能力,助力该项目实现全球互联的目标,单颗卫星设计寿命约为五年,失效后会再入大气层销毁。

Basic Information
目录编号:
59086
目录名称:
STARLINK-31279
国际标识:
2024-041N
轨道中心:
EARTH
卫星名称:
星链-31279
卫星全名:
星链-31279 (STARLINK-31279 )
卫星状态:
在轨 (已飞行925 天)
发射日期:
2024-02-29 UTC
国别 :
美国 (US)
星等 :
--
This satellite is enrolled in the Space Conjunction Data Service (SCDS) and the current flight risk assessment level is: No High Risk
Orbit Information
数据来源 国际轨道数据 AOE轨道数据
星历时间 2026-09-11T15:07:07+0800
13小时前
查看轨道信息
2026-09-06T01:00:00+0800
6天前
查看轨道信息
半长轴 6861.189km 6861.209km
偏心率 0.0001889 0.0001562
轨道倾角 43.008° 43.006°
近地点辐角 274.580° 273.347°
升交点赤经 342.841° 14.403°
平近点角 85.483° 279.135°
近地点 481.755km 482km
远地点 484.349km 484.144km
周期 94.267分钟 94.267分钟
每日圈数 15.275792 15.275725
Detailed Information
固有亮度:
5
最大亮度:
0.3
卫星平台:
Starlink v2.0 mini
覆盖范围:
全球
运营商:
太空探索技术公司
运营商所在国:
美国
制造商(研发单位):
太空探索技术公司
制造商所在国:
美国
使用方式:
暂无
Satellite Introduction
星链(Starlink)计划是由太空探索技术公司(SpaceX)提出的一个巨型低轨卫星互联网星座项目,计划在2019年至2024年间在太空搭建由约1.2万颗卫星组成的“星链”网络,其中1584颗将部署在地球上空550千米处的近地轨道,并从2020年开始工作。该卫星仍在工作。
2D Orbit Map
3D Orbit Map
Orbit Altitude Analysis Chart
Orbit Inclination Analysis Chart
Orbit Comprehensive Analysis Chart
View Comprehensive Chart
Conjunction Data List
Event ID Objects TCA Miss Dist (km) Collision Risk Probability Collision Risk Index (CRI) Action
CDM_260913-063504-282705-908621
OBJECT C (42827)
2026-09-13T
06:35:47+0000
0.791 km
远距离
5.067387E-5 中风险 0.69
CDM_260911-064405-908606-289521
2026-09-11T
06:44:56+0000
1.322 km
极远距离
2.192514E-6 低风险 0.42
CDM_260914-070505-908606-379021
2026-09-14T
07:05:39+0000
2.282 km
极远距离
1.453647E-6 低风险 0.38
CDM_260905-093405-505405-908623
2026-09-05T
09:34:20+0000
2.487 km
极远距离
1.413569E-6 低风险 0.38
Miss Distance Evolution Trend with All Objects
Collision Probability Evolution Trend with All Objects